| time (UTC) | temp F | wind direction | speed MPH | gust MPH | rain 1hr in | rain 24hr in | rain mn in | humidity % | barometer mb |
| 20260906205212 | 84 | 212 | 1.0 | 2.0 | 0.00 | 0.00 | 0.00 | 74 | 985.1 |
| 20260906204756 | 85 | 219 | 1.0 | 2.0 | 0.00 | 0.00 | 0.00 | 71 | 985.4 |
| 20260906203822 | 85 | 188 | 2.0 | 3.0 | 0.00 | 0.00 | 0.00 | 69 | 985.4 |
| 20260906202900 | 86 | 220 | 2.0 | 3.0 | 0.00 | 0.00 | 0.00 | 67 | 985.1 |
| 20260906202443 | 85 | 232 | 2.0 | 4.0 | 0.00 | 0.00 | 0.00 | 71 | 985.1 |
| 20260906201957 | 85 | 226 | 1.0 | 6.0 | 0.00 | 0.00 | 0.00 | 69 | 985.1 |
| 20260906201526 | 85 | 227 | 2.0 | 4.0 | 0.00 | 0.00 | 0.00 | 70 | 985.1 |
| 20260906201108 | 85 | 254 | 3.0 | 3.0 | 0.00 | 0.00 | 0.00 | 71 | 985.4 |
| 20260906200637 | 84 | 221 | 2.0 | 4.0 | 0.00 | 0.00 | 0.00 | 70 | 985.1 |
| 20260906200204 | 85 | 239 | 3.0 | 3.0 | 0.00 | 0.00 | 0.00 | 70 | 985.1 |
| 20260906195746 | 85 | 226 | 2.0 | 4.0 | 0.00 | 0.00 | 0.00 | 70 | 985.4 |
| 20260906194857 | 86 | 228 | 2.0 | 3.0 | 0.00 | 0.00 | 0.00 | 69 | 985.4 |
| 20260906194442 | 85 | 229 | 2.0 | 4.0 | 0.00 | 0.00 | 0.00 | 71 | 985.4 |
| 20260906193523 | 85 | 235 | 3.0 | 4.0 | 0.00 | 0.00 | 0.00 | 69 | 985.7 |
| 20260906192635 | 84 | 223 | 4.0 | 6.0 | 0.00 | 0.00 | 0.00 | 72 | 985.7 |
| 20260906192220 | 84 | 236 | 2.0 | 4.0 | 0.00 | 0.00 | 0.00 | 71 | 985.7 |
| 20260906191750 | 84 | 221 | 2.0 | 4.0 | 0.00 | 0.00 | 0.00 | 72 | 985.7 |
| 20260906191335 | 84 | 228 | 1.0 | 2.0 | 0.00 | 0.00 | 0.00 | 72 | 986.1 |
| 20260906190415 | 83 | 238 | 2.0 | 2.0 | 0.00 | 0.00 | 0.00 | 75 | 986.1 |
| 20260906185042 | 83 | 233 | 2.0 | 3.0 | 0.00 | 0.00 | 0.00 | 73 | 986.1 |
| 20260906184611 | 84 | 230 | 2.0 | 3.0 | 0.00 | 0.00 | 0.00 | 73 | 986.1 |
| 20260906184155 | 83 | 201 | 2.0 | 2.0 | 0.00 | 0.00 | 0.00 | 72 | 986.1 |
| 20260906183739 | 82 | 237 | 1.0 | 4.0 | 0.00 | 0.00 | 0.00 | 73 | 986.1 |
| 20260906182347 | 82 | 264 | 4.0 | 7.0 | 0.00 | 0.00 | 0.00 | 75 | 986.4 |
| 20260906181929 | 81 | 205 | 0.0 | 3.0 | 0.00 | 0.00 | 0.00 | 77 | 986.4 |
| 20260906180556 | 81 | 179 | 2.0 | 4.0 | 0.00 | 0.00 | 0.00 | 76 | 986.4 |
| 20260906180139 | 81 | 229 | 3.0 | 7.0 | 0.00 | 0.00 | 0.00 | 77 | 986.1 |
| 20260906175706 | 81 | 237 | 2.0 | 6.0 | 0.00 | 0.00 | 0.00 | 78 | 986.4 |
| 20260906175236 | 80 | 191 | 3.0 | 9.0 | 0.00 | 0.00 | 0.00 | 79 | 986.4 |
| 20260906174802 | 82 | 231 | 3.0 | 7.0 | 0.00 | 0.00 | 0.00 | 78 | 986.4 |
| 20260906174346 | 82 | 109 | 2.0 | 7.0 | 0.00 | 0.00 | 0.00 | 78 | 986.4 |
| 20260906172958 | 81 | 238 | 2.0 | 6.0 | 0.00 | 0.00 | 0.00 | 78 | 986.4 |
| 20260906172526 | 82 | 207 | 4.0 | 6.0 | 0.00 | 0.00 | 0.00 | 79 | 986.4 |
| 20260906172053 | 81 | 285 | 6.0 | 8.0 | 0.00 | 0.00 | 0.00 | 77 | 986.7 |
| 20260906171639 | 82 | 247 | 2.0 | 8.0 | 0.00 | 0.00 | 0.00 | 77 | 986.7 |
| 20260906170246 | 81 | 231 | 2.0 | 3.0 | 0.00 | 0.00 | 0.00 | 77 | 986.7 |
| 20260906164911 | 80 | 251 | 2.0 | 4.0 | 0.00 | 0.00 | 0.00 | 82 | 986.7 |
| 20260906164454 | 80 | 216 | 2.0 | 8.0 | 0.00 | 0.00 | 0.00 | 82 | 986.7 |
| 20260906164038 | 79 | 256 | 6.0 | 7.0 | 0.00 | 0.00 | 0.00 | 82 | 987.1 |
| 20260906163621 | 80 | 240 | 5.0 | 11.0 | 0.00 | 0.00 | 0.00 | 82 | 987.1 |
| 20260906163202 | 80 | 219 | 1.0 | 4.0 | 0.00 | 0.00 | 0.00 | 81 | 987.1 |
| 20260906162745 | 80 | 230 | 3.0 | 6.0 | 0.00 | 0.00 | 0.00 | 82 | 987.1 |
| 20260906162328 | 80 | 237 | 4.0 | 6.0 | 0.00 | 0.00 | 0.00 | 82 | 987.4 |
| 20260906161842 | 81 | 206 | 3.0 | 4.0 | 0.00 | 0.00 | 0.00 | 81 | 987.4 |
| 20260906161426 | 79 | 256 | 5.0 | 6.0 | 0.00 | 0.00 | 0.00 | 84 | 987.4 |
| 20260906161009 | 78 | 239 | 2.0 | 2.0 | 0.00 | 0.00 | 0.00 | 86 | 987.1 |
| 20260906160552 | 78 | 279 | 4.0 | 6.0 | 0.00 | 0.00 | 0.00 | 87 | 987.4 |
| 20260906160121 | 79 | 229 | 2.0 | 7.0 | 0.00 | 0.00 | 0.00 | 86 | 987.1 |
| 20260906155651 | 79 | 231 | 2.0 | 6.0 | 0.00 | 0.00 | 0.00 | 86 | 987.4 |
| 20260906155220 | 79 | 262 | 3.0 | 4.0 | 0.00 | 0.00 | 0.00 | 85 | 987.4 |
| 20260906154749 | 79 | 261 | 4.0 | 7.0 | 0.00 | 0.00 | 0.00 | 84 | 987.1 |
| 20260906153258 | 79 | 267 | 3.0 | 7.0 | 0.00 | 0.00 | 0.00 | 86 | 987.1 |
| 20260906152827 | 79 | 209 | 1.0 | 6.0 | 0.00 | 0.00 | 0.00 | 86 | 986.7 |
| 20260906152355 | 78 | 263 | 3.0 | 6.0 | 0.00 | 0.00 | 0.00 | 88 | 987.1 |
| 20260906151937 | 78 | 248 | 4.0 | 7.0 | 0.00 | 0.00 | 0.00 | 87 | 987.1 |
| 20260906151505 | 78 | 231 | 1.0 | 6.0 | 0.00 | 0.00 | 0.00 | 88 | 987.1 |
| 20260906151035 | 78 | 234 | 3.0 | 7.0 | 0.00 | 0.00 | 0.00 | 89 | 987.1 |
| 20260906150603 | 78 | 223 | 2.0 | 6.0 | 0.00 | 0.00 | 0.00 | 89 | 986.7 |
| 20260906150147 | 78 | 273 | 4.0 | 6.0 | 0.00 | 0.00 | 0.00 | 89 | 986.7 |
| 20260906145713 | 78 | 227 | 3.0 | 7.0 | 0.00 | 0.00 | 0.00 | 88 | 987.1 |
| 20260906145256 | 78 | 241 | 2.0 | 6.0 | 0.00 | 0.00 | 0.00 | 89 | 986.7 |
| 20260906144840 | 77 | 239 | 2.0 | 6.0 | 0.00 | 0.00 | 0.00 | 90 | 986.7 |
| 20260906144423 | 77 | 230 | 1.0 | 4.0 | 0.00 | 0.00 | 0.00 | 91 | 986.7 |
| 20260906144006 | 77 | 249 | 2.0 | 6.0 | 0.00 | 0.00 | 0.00 | 90 | 986.7 |
| 20260906143549 | 77 | 242 | 2.0 | 3.0 | 0.00 | 0.00 | 0.00 | 91 | 986.7 |
| 20260906143120 | 76 | 231 | 2.0 | 4.0 | 0.00 | 0.00 | 0.00 | 92 | 986.7 |
| 20260906142703 | 76 | 242 | 4.0 | 6.0 | 0.00 | 0.00 | 0.00 | 92 | 986.7 |
| 20260906142230 | 76 | 219 | 5.0 | 9.0 | 0.00 | 0.00 | 0.00 | 92 | 986.7 |
| 20260906141813 | 76 | 261 | 4.0 | 6.0 | 0.00 | 0.00 | 0.00 | 93 | 986.7 |
| 20260906141357 | 76 | 221 | 3.0 | 8.0 | 0.00 | 0.00 | 0.00 | 93 | 986.7 |
| 20260906140938 | 75 | 222 | 3.0 | 6.0 | 0.00 | 0.00 | 0.00 | 94 | 986.7 |
| 20260906140521 | 75 | 196 | 4.0 | 6.0 | 0.00 | 0.00 | 0.00 | 94 | 986.7 |
| 20260906140050 | 75 | 177 | 0.0 | 4.0 | 0.00 | 0.00 | 0.00 | 94 | 986.7 |
| 20260906135632 | 75 | 179 | 1.0 | 4.0 | 0.00 | 0.00 | 0.00 | 94 | 986.7 |
| 20260906135216 | 75 | 182 | 2.0 | 4.0 | 0.00 | 0.00 | 0.00 | 94 | 986.7 |
| 20260906134759 | 74 | 172 | 2.0 | 3.0 | 0.00 | 0.00 | 0.00 | 95 | 986.7 |
| 20260906134344 | 74 | 168 | 0.0 | 3.0 | 0.00 | 0.00 | 0.00 | 95 | 986.7 |
| 20260906133927 | 74 | 182 | 2.0 | 2.0 | 0.00 | 0.00 | 0.00 | 95 | 987.1 |
| 20260906133510 | 74 | 177 | 1.0 | 1.0 | 0.00 | 0.00 | 0.00 | 96 | 987.1 |
| 20260906133055 | 74 | 173 | 1.0 | 2.0 | 0.00 | 0.00 | 0.00 | 96 | 986.7 |
| 20260906132637 | 73 | 174 | 0.0 | 1.0 | 0.00 | 0.00 | 0.00 | 96 | 987.1 |
| 20260906132206 | 73 | 173 | 0.0 | 1.0 | 0.00 | 0.00 | 0.00 | 96 | 987.1 |
| 20260906131734 | 73 | 165 | 0.0 | 1.0 | 0.00 | 0.00 | 0.00 | 96 | 987.1 |
| 20260906131318 | 73 | 166 | 0.0 | 0.0 | 0.00 | 0.00 | 0.00 | 97 | 987.1 |
| 20260906130413 | 73 | 168 | 0.0 | 0.0 | 0.00 | 0.00 | 0.00 | 98 | 987.1 |
| 20260906125942 | 73 | 168 | 0.0 | 0.0 | 0.00 | 0.00 | 0.00 | 99 | 986.7 |
| 20260906125037 | 72 | 172 | 0.0 | 0.0 | 0.00 | 0.00 | 0.00 | 99 | 986.7 |
| 20260906124620 | 72 | 172 | 1.0 | 1.0 | 0.00 | 0.00 | 0.00 | 99 | 986.7 |
| 20260906124148 | 72 | 162 | 0.0 | 1.0 | 0.00 | 0.00 | 0.00 | 99 | 986.7 |
| 20260906123717 | 72 | 173 | 0.0 | 0.0 | 0.00 | 0.00 | 0.00 | 99 | 986.7 |
| 20260906122813 | 71 | 171 | 0.0 | 1.0 | 0.00 | 0.00 | 0.00 | 99 | 986.4 |
| 20260906122357 | 71 | 171 | 0.0 | 1.0 | 0.00 | 0.00 | 0.00 | 99 | 986.4 |
| 20260906121925 | 71 | 165 | 0.0 | 1.0 | 0.00 | 0.00 | 0.00 | 99 | 986.4 |
| 20260906121505 | 71 | 164 | 0.0 | 1.0 | 0.00 | 0.00 | 0.00 | 99 | 986.1 |
| 20260906121018 | 71 | 163 | 0.0 | 0.0 | 0.00 | 0.00 | 0.00 | 99 | 986.4 |
| 20260906120547 | 71 | 163 | 0.0 | 0.0 | 0.00 | 0.00 | 0.00 | 99 | 986.4 |
| 20260906115157 | 71 | 163 | 0.0 | 0.0 | 0.00 | 0.00 | 0.00 | 99 | 986.1 |
| 20260906114740 | 71 | 164 | 0.0 | 0.0 | 0.00 | 0.00 | 0.00 | 99 | 986.1 |
| 20260906114324 | 71 | 164 | 0.0 | 0.0 | 0.00 | 0.00 | 0.00 | 99 | 986.1 |
| 20260906113406 | 71 | 163 | 0.0 | 0.0 | 0.00 | 0.00 | 0.00 | 99 | 986.1 |
| 20260906112920 | 71 | 166 | 0.0 | 1.0 | 0.00 | 0.00 | 0.00 | 99 | 986.1 |
| 20260906111947 | 71 | 163 | 0.0 | 2.0 | 0.00 | 0.00 | 0.00 | 99 | 986.1 |
| 20260906111532 | 71 | 163 | 0.0 | 0.0 | 0.00 | 0.00 | 0.00 | 99 | 985.7 |
| 20260906111116 | 71 | 163 | 0.0 | 0.0 | 0.00 | 0.00 | 0.00 | 99 | 985.7 |
| 20260906110700 | 71 | 165 | 0.0 | 0.0 | 0.00 | 0.00 | 0.00 | 99 | 985.7 |
| 20260906110230 | 71 | 171 | 0.0 | 1.0 | 0.00 | 0.00 | 0.00 | 99 | 985.7 |
| 20260906105815 | 71 | 164 | 0.0 | 1.0 | 0.00 | 0.00 | 0.00 | 99 | 985.7 |
| 20260906105344 | 71 | 163 | 0.0 | 0.0 | 0.00 | 0.00 | 0.00 | 99 | 985.7 |
| 20260906104441 | 71 | 163 | 0.0 | 0.0 | 0.00 | 0.00 | 0.00 | 99 | 985.4 |
| 20260906104024 | 71 | 163 | 0.0 | 1.0 | 0.00 | 0.00 | 0.00 | 99 | 985.4 |
| 20260906103609 | 71 | 163 | 0.0 | 0.0 | 0.00 | 0.00 | 0.00 | 99 | 985.4 |
| 20260906103151 | 71 | 162 | 0.0 | 1.0 | 0.00 | 0.00 | 0.00 | 99 | 985.4 |
| 20260906102650 | 71 | 164 | 0.0 | 0.0 | 0.00 | 0.00 | 0.00 | 99 | 985.4 |
| 20260906102219 | 71 | 164 | 0.0 | 0.0 | 0.00 | 0.00 | 0.00 | 99 | 985.4 |
| 20260906101803 | 71 | 164 | 0.0 | 0.0 | 0.00 | 0.00 | 0.00 | 99 | 985.4 |
| 20260906101334 | 70 | 165 | 0.0 | 2.0 | 0.00 | 0.00 | 0.00 | 99 | 985.1 |
| 20260906100902 | 71 | 160 | 1.0 | 1.0 | 0.00 | 0.00 | 0.00 | 99 | 985.4 |
| 20260906100432 | 71 | 156 | 1.0 | 1.0 | 0.00 | 0.00 | 0.00 | 99 | 985.1 |
| 20260906100016 | 71 | 173 | 0.0 | 0.0 | 0.00 | 0.00 | 0.00 | 99 | 985.1 |
| 20260906095529 | 71 | 174 | 0.0 | 0.0 | 0.00 | 0.00 | 0.00 | 99 | 985.1 |
| 20260906095112 | 71 | 174 | 0.0 | 0.0 | 0.00 | 0.00 | 0.00 | 99 | 985.1 |
| 20260906093738 | 70 | 174 | 0.0 | 0.0 | 0.00 | 0.00 | 0.00 | 99 | 985.1 |
| 20260906093322 | 70 | 174 | 0.0 | 0.0 | 0.00 | 0.00 | 0.00 | 99 | 985.1 |
| 20260906092905 | 70 | 174 | 0.0 | 0.0 | 0.00 | 0.00 | 0.00 | 99 | 985.1 |
| 20260906092450 | 70 | 174 | 0.0 | 1.0 | 0.00 | 0.00 | 0.00 | 99 | 985.1 |
| 20260906092019 | 71 | 166 | 0.0 | 0.0 | 0.00 | 0.00 | 0.00 | 99 | 985.4 |
| 20260906091549 | 71 | 166 | 0.0 | 0.0 | 0.00 | 0.00 | 0.00 | 99 | 985.1 |
| 20260906091133 | 71 | 165 | 0.0 | 0.0 | 0.00 | 0.00 | 0.00 | 99 | 985.1 |
| 20260906090659 | 71 | 165 | 0.0 | 0.0 | 0.00 | 0.00 | 0.00 | 99 | 985.1 |
| 20260906090211 | 71 | 166 | 0.0 | 0.0 | 0.00 | 0.00 | 0.00 | 99 | 985.1 |
| 20260906085739 | 71 | 166 | 0.0 | 1.0 | 0.00 | 0.00 | 0.00 | 99 | 985.1 |
| 20260906085322 | 71 | 165 | 0.0 | 0.0 | 0.00 | 0.00 | 0.00 | 99 | 984.7 |
| 20260906084002 | 71 | 165 | 0.0 | 1.0 | 0.00 | 0.00 | 0.00 | 99 | 985.1 |
| 20260906083531 | 71 | 165 | 1.0 | 1.0 | 0.00 | 0.00 | 0.00 | 99 | 984.7 |
| 20260906083114 | 71 | 164 | 0.0 | 1.0 | 0.00 | 0.00 | 0.00 | 99 | 985.1 |
| 20260906082642 | 71 | 163 | 0.0 | 0.0 | 0.00 | 0.00 | 0.00 | 99 | 985.1 |
| 20260906082211 | 71 | 163 | 0.0 | 0.0 | 0.00 | 0.00 | 0.00 | 99 | 985.1 |
| 20260906081252 | 71 | 163 | 0.0 | 1.0 | 0.00 | 0.00 | 0.00 | 99 | 985.1 |
| 20260906080821 | 71 | 162 | 0.0 | 1.0 | 0.00 | 0.00 | 0.00 | 99 | 985.1 |
| 20260906080352 | 70 | 166 | 0.0 | 1.0 | 0.00 | 0.00 | 0.00 | 99 | 985.1 |
| 20260906075935 | 71 | 164 | 1.0 | 1.0 | 0.00 | 0.00 | 0.00 | 99 | 985.1 |
| 20260906075518 | 71 | 163 | 0.0 | 0.0 | 0.00 | 0.00 | 0.00 | 99 | 985.1 |
| 20260906075046 | 71 | 169 | 0.0 | 0.0 | 0.00 | 0.00 | 0.00 | 99 | 985.1 |
| 20260906074631 | 70 | 169 | 1.0 | 1.0 | 0.00 | 0.00 | 0.00 | 99 | 985.1 |
| 20260906074214 | 70 | 169 | 0.0 | 1.0 | 0.00 | 0.00 | 0.00 | 99 | 985.1 |
| 20260906073325 | 71 | 163 | 0.0 | 0.0 | 0.00 | 0.00 | 0.00 | 99 | 985.1 |
| 20260906072908 | 71 | 162 | 0.0 | 0.0 | 0.00 | 0.00 | 0.00 | 99 | 985.1 |
| 20260906072437 | 71 | 163 | 0.0 | 1.0 | 0.00 | 0.00 | 0.00 | 99 | 985.1 |
| 20260906071549 | 70 | 165 | 0.0 | 0.0 | 0.00 | 0.00 | 0.00 | 99 | 985.1 |
| 20260906071133 | 70 | 166 | 0.0 | 1.0 | 0.00 | 0.00 | 0.00 | 99 | 985.1 |
| 20260906065727 | 70 | 166 | 0.0 | 1.0 | 0.00 | 0.00 | 0.00 | 99 | 984.7 |
| 20260906065310 | 70 | 167 | 0.0 | 1.0 | 0.00 | 0.00 | 0.00 | 99 | 984.7 |
| 20260906064838 | 71 | 171 | 0.0 | 0.0 | 0.00 | 0.00 | 0.00 | 99 | 984.7 |
| 20260906063934 | 70 | 171 | 0.0 | 0.0 | 0.00 | 0.00 | 0.00 | 99 | 985.1 |
| 20260906063518 | 71 | 165 | 0.0 | 0.0 | 0.00 | 0.00 | 0.00 | 99 | 985.1 |
| 20260906063100 | 70 | 171 | 0.0 | 0.0 | 0.00 | 0.00 | 0.00 | 99 | 985.1 |
| 20260906062645 | 70 | 172 | 0.0 | 1.0 | 0.00 | 0.00 | 0.00 | 99 | 985.4 |
| 20260906061323 | 70 | 166 | 0.0 | 0.0 | 0.00 | 0.00 | 0.00 | 99 | 985.1 |
| 20260906060906 | 70 | 171 | 0.0 | 1.0 | 0.00 | 0.00 | 0.00 | 99 | 985.4 |
| 20260906060451 | 71 | 171 | 1.0 | 2.0 | 0.00 | 0.00 | 0.00 | 99 | 985.4 |
| 20260906060035 | 71 | 164 | 1.0 | 1.0 | 0.00 | 0.00 | 0.00 | 99 | 985.4 |
| 20260906055618 | 70 | 167 | 0.0 | 0.0 | 0.00 | 0.00 | 0.00 | 99 | 985.4 |
| 20260906055203 | 70 | 167 | 1.0 | 2.0 | 0.00 | 0.00 | 0.00 | 99 | 985.4 |
| 20260906054748 | 70 | 168 | 1.0 | 2.0 | 0.00 | 0.00 | 0.00 | 99 | 985.7 |
| 20260906054302 | 70 | 172 | 0.0 | 0.0 | 0.00 | 0.00 | 0.00 | 99 | 985.1 |
| 20260906053846 | 70 | 173 | 0.0 | 1.0 | 0.00 | 0.00 | 0.00 | 99 | 985.1 |
| 20260906053416 | 71 | 170 | 0.0 | 1.0 | 0.00 | 0.00 | 0.00 | 99 | 985.1 |
| 20260906052945 | 71 | 164 | 0.0 | 1.0 | 0.00 | 0.00 | 0.00 | 99 | 985.1 |
| 20260906052043 | 70 | 163 | 0.0 | 0.0 | 0.00 | 0.00 | 0.00 | 99 | 985.1 |
| 20260906050712 | 70 | 162 | 0.0 | 1.0 | 0.00 | 0.00 | 0.00 | 99 | 985.4 |
| 20260906045824 | 70 | 167 | 0.0 | 1.0 | 0.00 | 0.00 | 0.00 | 99 | 985.7 |
| 20260906045407 | 70 | 166 | 0.0 | 0.0 | 0.00 | 0.00 | 0.00 | 99 | 985.4 |
| 20260906044951 | 70 | 167 | 0.0 | 1.0 | 0.00 | 0.00 | 0.00 | 99 | 985.4 |
| 20260906044520 | 70 | 172 | 0.0 | 1.0 | 0.00 | 0.00 | 0.00 | 99 | 985.7 |
| 20260906044104 | 70 | 171 | 0.0 | 0.0 | 0.00 | 0.00 | 0.00 | 99 | 985.1 |
| 20260906042718 | 71 | 167 | 0.0 | 1.0 | 0.00 | 0.00 | 0.00 | 99 | 985.4 |
| 20260906042302 | 71 | 165 | 0.0 | 1.0 | 0.00 | 0.00 | 0.00 | 99 | 985.4 |
| 20260906041846 | 71 | 164 | 0.0 | 2.0 | 0.00 | 0.00 | 0.00 | 99 | 985.1 |
| 20260906040928 | 71 | 165 | 0.0 | 0.0 | 0.00 | 0.00 | 0.00 | 99 | 985.1 |
| 20260906040512 | 71 | 164 | 0.0 | 0.0 | 0.00 | 0.00 | 0.00 | 99 | 985.4 |
| 20260906040056 | 71 | 165 | 0.0 | 1.0 | 0.00 | 0.00 | 0.00 | 99 | 985.1 |
| 20260906035624 | 71 | 174 | 0.0 | 1.0 | 0.00 | 0.00 | 0.25 | 99 | 985.1 |
| 20260906035207 | 71 | 165 | 0.0 | 0.0 | 0.00 | 0.00 | 0.25 | 99 | 985.1 |
| 20260906034752 | 71 | 170 | 0.0 | 0.0 | 0.00 | 0.00 | 0.25 | 99 | 985.1 |
| 20260906033820 | 71 | 170 | 0.0 | 1.0 | 0.00 | 0.00 | 0.25 | 99 | 985.4 |
| 20260906033400 | 72 | 171 | 0.0 | 0.0 | 0.00 | 0.00 | 0.25 | 99 | 985.7 |
| 20260906032944 | 72 | 170 | 0.0 | 0.0 | 0.00 | 0.00 | 0.25 | 99 | 985.7 |
| 20260906032513 | 72 | 170 | 0.0 | 1.0 | 0.00 | 0.00 | 0.25 | 99 | 985.7 |
| 20260906032043 | 72 | 170 | 0.0 | 0.0 | 0.00 | 0.00 | 0.25 | 99 | 985.7 |
| 20260906031555 | 72 | 170 | 0.0 | 0.0 | 0.00 | 0.00 | 0.25 | 99 | 985.7 |
| 20260906031140 | 71 | 170 | 0.0 | 0.0 | 0.00 | 0.00 | 0.25 | 99 | 985.7 |
| 20260906030651 | 72 | 170 | 0.0 | 0.0 | 0.00 | 0.00 | 0.25 | 99 | 985.7 |
| 20260906030236 | 72 | 170 | 0.0 | 0.0 | 0.00 | 0.00 | 0.25 | 99 | 985.7 |
| 20260906025346 | 72 | 171 | 0.0 | 0.0 | 0.00 | 0.00 | 0.25 | 99 | 985.7 |
| 20260906024914 | 72 | 170 | 0.0 | 0.0 | 0.00 | 0.00 | 0.25 | 99 | 985.7 |
| 20260906024427 | 72 | 170 | 0.0 | 0.0 | 0.00 | 0.00 | 0.25 | 99 | 985.7 |
| 20260906023954 | 72 | 171 | 0.0 | 0.0 | 0.00 | 0.00 | 0.25 | 99 | 985.7 |
| 20260906023538 | 72 | 171 | 0.0 | 0.0 | 0.00 | 0.00 | 0.25 | 99 | 985.7 |
| 20260906023107 | 72 | 171 | 0.0 | 0.0 | 0.00 | 0.00 | 0.25 | 99 | 985.7 |
| 20260906022636 | 72 | 171 | 0.0 | 0.0 | 0.00 | 0.00 | 0.25 | 99 | 985.7 |
| 20260906022204 | 72 | 171 | 0.0 | 0.0 | 0.00 | 0.00 | 0.25 | 99 | 986.1 |
| 20260906021733 | 72 | 171 | 0.0 | 0.0 | 0.00 | 0.00 | 0.25 | 99 | 985.7 |
| 20260906021316 | 72 | 171 | 1.0 | 1.0 | 0.00 | 0.00 | 0.25 | 99 | 985.7 |
| 20260906020357 | 73 | 171 | 0.0 | 0.0 | 0.00 | 0.00 | 0.25 | 99 | 985.7 |
| 20260906015941 | 73 | 171 | 0.0 | 0.0 | 0.00 | 0.00 | 0.25 | 99 | 985.7 |
| 20260906015509 | 73 | 171 | 1.0 | 1.0 | 0.00 | 0.00 | 0.25 | 99 | 985.4 |
| 20260906014621 | 73 | 171 | 0.0 | 0.0 | 0.00 | 0.00 | 0.25 | 99 | 985.4 |
| 20260906014149 | 73 | 171 | 0.0 | 0.0 | 0.00 | 0.00 | 0.25 | 99 | 985.4 |
| 20260906013733 | 73 | 171 | 0.0 | 0.0 | 0.00 | 0.00 | 0.25 | 99 | 985.1 |
| 20260906013259 | 74 | 171 | 0.0 | 0.0 | 0.00 | 0.00 | 0.25 | 99 | 985.1 |
| 20260906012842 | 74 | 171 | 0.0 | 0.0 | 0.00 | 0.00 | 0.25 | 99 | 985.1 |
| 20260906012411 | 74 | 171 | 0.0 | 0.0 | 0.00 | 0.00 | 0.25 | 99 | 985.1 |
| 20260906011939 | 74 | 171 | 0.0 | 0.0 | 0.00 | 0.00 | 0.25 | 99 | 985.1 |
| 20260906011036 | 74 | 171 | 0.0 | 0.0 | 0.00 | 0.00 | 0.25 | 99 | 985.1 |
| 20260906010133 | 74 | 171 | 0.0 | 0.0 | 0.00 | 0.00 | 0.25 | 99 | 985.1 |
| 20260906005716 | 74 | 171 | 0.0 | 0.0 | 0.00 | 0.00 | 0.25 | 99 | 984.7 |
| 20260906005244 | 74 | 171 | 0.0 | 0.0 | 0.00 | 0.00 | 0.25 | 99 | 984.7 |
| 20260906004813 | 74 | 171 | 0.0 | 0.0 | 0.00 | 0.00 | 0.25 | 99 | 984.7 |
| 20260906004340 | 75 | 171 | 0.0 | 0.0 | 0.00 | 0.00 | 0.25 | 99 | 984.7 |
| 20260906003923 | 74 | 171 | 0.0 | 0.0 | 0.00 | 0.00 | 0.25 | 99 | 984.7 |
| 20260906003506 | 74 | 171 | 0.0 | 0.0 | 0.00 | 0.00 | 0.25 | 99 | 985.1 |
| 20260906002602 | 75 | 171 | 0.0 | 0.0 | 0.00 | 0.00 | 0.25 | 99 | 984.7 |
| 20260906002147 | 75 | 171 | 0.0 | 0.0 | 0.00 | 0.00 | 0.25 | 99 | 984.7 |
| 20260906001729 | 75 | 171 | 0.0 | 0.0 | 0.00 | 0.00 | 0.25 | 99 | 985.1 |
| 20260906001257 | 75 | 171 | 0.0 | 0.0 | 0.00 | 0.00 | 0.25 | 99 | 984.7 |
| 20260906000841 | 75 | 171 | 0.0 | 0.0 | 0.00 | 0.00 | 0.25 | 98 | 985.1 |
| 20260906000411 | 75 | 171 | 0.0 | 0.0 | 0.00 | 0.00 | 0.25 | 98 | 984.7 |
| 20260905235952 | 76 | 171 | 0.0 | 0.0 | 0.00 | 0.00 | 0.25 | 97 | 985.1 |
| 20260905235536 | 76 | 171 | 0.0 | 0.0 | 0.00 | 0.00 | 0.25 | 98 | 984.7 |
| 20260905235047 | 76 | 171 | 0.0 | 0.0 | 0.00 | 0.00 | 0.25 | 97 | 984.7 |
| 20260905234631 | 76 | 171 | 1.0 | 1.0 | 0.00 | 0.00 | 0.25 | 97 | 984.7 |
| 20260905234216 | 76 | 172 | 0.0 | 0.0 | 0.00 | 0.00 | 0.25 | 96 | 985.1 |
| 20260905233801 | 77 | 172 | 0.0 | 0.0 | 0.00 | 0.00 | 0.25 | 96 | 985.1 |
| 20260905233345 | 77 | 172 | 0.0 | 0.0 | 0.00 | 0.00 | 0.25 | 96 | 985.1 |
| 20260905231547 | 77 | 171 | 0.0 | 1.0 | 0.00 | 0.00 | 0.25 | 95 | 985.1 |
| 20260905231119 | 77 | 171 | 0.0 | 0.0 | 0.00 | 0.00 | 0.25 | 95 | 985.1 |
| 20260905230219 | 78 | 171 | 0.0 | 1.0 | 0.00 | 0.00 | 0.25 | 93 | 985.1 |
| 20260905225747 | 78 | 171 | 0.0 | 0.0 | 0.00 | 0.00 | 0.25 | 93 | 984.7 |
| 20260905225317 | 78 | 171 | 0.0 | 1.0 | 0.00 | 0.00 | 0.25 | 93 | 984.7 |
| 20260905224846 | 78 | 172 | 0.0 | 1.0 | 0.00 | 0.00 | 0.25 | 92 | 985.1 |
| 20260905224429 | 79 | 172 | 0.0 | 0.0 | 0.00 | 0.00 | 0.25 | 92 | 984.7 |
| 20260905224010 | 79 | 172 | 0.0 | 1.0 | 0.00 | 0.00 | 0.25 | 91 | 984.7 |
| 20260905223539 | 80 | 170 | 0.0 | 1.0 | 0.00 | 0.00 | 0.25 | 91 | 985.1 |
| 20260905223125 | 80 | 170 | 0.0 | 0.0 | 0.00 | 0.00 | 0.25 | 91 | 985.1 |
| 20260905222710 | 80 | 171 | 0.0 | 1.0 | 0.00 | 0.00 | 0.25 | 88 | 985.1 |
| 20260905222255 | 80 | 172 | 1.0 | 1.0 | 0.00 | 0.00 | 0.25 | 87 | 984.7 |
| 20260905221839 | 81 | 171 | 1.0 | 1.0 | 0.00 | 0.00 | 0.25 | 85 | 984.7 |
| 20260905220938 | 82 | 189 | 1.0 | 2.0 | 0.00 | 0.00 | 0.25 | 84 | 984.7 |
| 20260905220520 | 82 | 187 | 0.0 | 1.0 | 0.00 | 0.00 | 0.25 | 82 | 984.4 |
| 20260905220046 | 81 | 179 | 1.0 | 2.0 | 0.00 | 0.00 | 0.25 | 84 | 984.7 |
| 20260905215630 | 82 | 180 | 0.0 | 2.0 | 0.00 | 0.00 | 0.25 | 83 | 984.7 |
| 20260905215159 | 81 | 185 | 0.0 | 1.0 | 0.00 | 0.00 | 0.25 | 84 | 984.7 |
| 20260905214312 | 80 | 192 | 0.0 | 0.0 | 0.00 | 0.00 | 0.25 | 84 | 984.4 |
| 20260905212943 | 82 | 195 | 1.0 | 2.0 | 0.00 | 0.00 | 0.25 | 79 | 984.4 |
| 20260905212044 | 84 | 195 | 0.0 | 1.0 | 0.00 | 0.00 | 0.25 | 78 | 984.4 |
| 20260905211614 | 86 | 196 | 1.0 | 2.0 | 0.00 | 0.00 | 0.25 | 74 | 984.0 |
| 20260905211158 | 85 | 196 | 0.0 | 1.0 | 0.00 | 0.00 | 0.25 | 76 | 984.4 |
| 20260905210743 | 84 | 196 | 2.0 | 2.0 | 0.00 | 0.00 | 0.25 | 78 | 984.0 |